TimeEDT,TemperatureF,Dew PointF,Humidity,Sea Level PressureIn,VisibilityMPH,Wind Direction,Wind SpeedMPH,Gust SpeedMPH,PrecipitationIn,Events,Conditions,WindDirDegrees,DateUTC
12:16 AM,52.7,44.1,72,30.04,10.0,Calm,Calm,-,N/A,,Clear,0,2013-06-15 04:16:00
12:35 AM,49.3,43.7,81,30.03,10.0,Calm,Calm,-,N/A,,Clear,0,2013-06-15 04:35:00
12:56 AM,48.4,43.3,83,30.02,10.0,Calm,Calm,-,N/A,,Clear,0,2013-06-15 04:56:00
1:16 AM,46.6,43.3,88,30.01,10.0,Calm,Calm,-,N/A,,Clear,0,2013-06-15 05:16:00
1:36 AM,45.7,43.7,93,30.01,10.0,Calm,Calm,-,N/A,,Clear,0,2013-06-15 05:36:00
1:56 AM,44.8,43.0,93,30.01,10.0,Calm,Calm,-,N/A,,Clear,0,2013-06-15 05:56:00
2:15 AM,44.4,43.2,95,30.00,10.0,Calm,Calm,-,N/A,,Clear,0,2013-06-15 06:15:00
2:36 AM,43.5,43.0,98,30.01,10.0,Calm,Calm,-,N/A,,Clear,0,2013-06-15 06:36:00
2:56 AM,42.6,42.3,99,30.01,10.0,Calm,Calm,-,N/A,,Clear,0,2013-06-15 06:56:00
3:16 AM,42.3,41.9,99,30.01,10.0,Calm,Calm,-,N/A,,Clear,0,2013-06-15 07:16:00
3:36 AM,42.4,42.1,99,30.01,10.0,Calm,Calm,-,N/A,,Clear,0,2013-06-15 07:36:00
3:56 AM,43.5,43.0,98,30.02,10.0,Calm,Calm,-,N/A,,Clear,0,2013-06-15 07:56:00
4:16 AM,46.9,45.9,96,30.02,10.0,Calm,Calm,-,N/A,,Clear,0,2013-06-15 08:16:00
4:36 AM,48.4,46.8,94,30.01,10.0,Calm,Calm,-,N/A,,Clear,0,2013-06-15 08:36:00
4:56 AM,47.8,47.1,97,30.03,10.0,Calm,Calm,-,N/A,,Clear,0,2013-06-15 08:56:00
5:16 AM,48.2,46.8,95,30.02,10.0,Calm,Calm,-,N/A,,Clear,0,2013-06-15 09:16:00
5:36 AM,48.2,46.4,93,30.00,10.0,Calm,Calm,-,N/A,,Clear,0,2013-06-15 09:36:00
5:55 AM,48.2,46.9,95,30.02,10.0,Calm,Calm,-,N/A,,Clear,0,2013-06-15 09:55:00
6:16 AM,49.3,46.0,89,30.01,10.0,Calm,Calm,-,N/A,,Clear,0,2013-06-15 10:16:00
6:36 AM,49.1,47.3,93,30.01,10.0,Calm,Calm,-,N/A,,Clear,0,2013-06-15 10:36:00
6:55 AM,49.8,46.4,88,30.03,10.0,Calm,Calm,-,N/A,,Clear,0,2013-06-15 10:55:00
7:16 AM,50.0,43.9,79,30.04,10.0,Calm,Calm,-,N/A,,Clear,0,2013-06-15 11:16:00
7:36 AM,50.9,43.2,75,30.02,10.0,Calm,Calm,-,N/A,,Clear,0,2013-06-15 11:36:00
7:56 AM,51.8,43.7,74,30.03,10.0,Calm,Calm,-,N/A,,Clear,0,2013-06-15 11:56:00
8:16 AM,52.7,45.3,76,30.03,10.0,Calm,Calm,-,N/A,,Clear,0,2013-06-15 12:16:00
8:36 AM,54.0,47.3,78,30.03,10.0,Calm,Calm,-,N/A,,Clear,0,2013-06-15 12:36:00
8:56 AM,56.5,43.9,63,30.04,10.0,Calm,Calm,-,N/A,,Clear,0,2013-06-15 12:56:00
9:16 AM,57.6,43.5,59,30.05,10.0,Calm,Calm,-,N/A,,Clear,0,2013-06-15 13:16:00
9:36 AM,58.6,45.0,60,30.04,10.0,Calm,Calm,-,N/A,,Clear,0,2013-06-15 13:36:00
9:56 AM,59.5,42.4,53,30.03,10.0,Calm,Calm,-,N/A,,Clear,0,2013-06-15 13:56:00
10:16 AM,60.3,42.8,53,30.03,10.0,Calm,Calm,-,N/A,,Clear,0,2013-06-15 14:16:00
10:36 AM,61.5,42.4,50,30.02,10.0,Calm,Calm,-,N/A,,Clear,0,2013-06-15 14:36:00
10:56 AM,63.3,42.1,46,30.00,10.0,Calm,Calm,-,N/A,,Clear,0,2013-06-15 14:56:00
11:16 AM,65.1,39.7,39,30.00,10.0,Calm,Calm,-,N/A,,Clear,0,2013-06-15 15:16:00
11:35 AM,66.4,40.1,38,29.99,10.0,Calm,Calm,-,N/A,,Clear,0,2013-06-15 15:35:00
11:56 AM,67.1,36.7,33,29.98,10.0,Calm,Calm,-,N/A,,Clear,0,2013-06-15 15:56:00
12:16 PM,67.5,42.3,40,29.98,10.0,Calm,Calm,-,N/A,,Clear,0,2013-06-15 16:16:00
12:36 PM,67.6,40.6,37,29.97,10.0,Calm,Calm,-,N/A,,Clear,0,2013-06-15 16:36:00
12:56 PM,66.4,40.8,39,29.97,10.0,South,5.8,-,N/A,,Clear,190,2013-06-15 16:56:00
1:16 PM,66.2,38.5,36,29.97,10.0,SSW,8.1,-,N/A,,Scattered Clouds,200,2013-06-15 17:16:00
1:36 PM,63.7,42.4,46,29.97,10.0,SSW,6.9,-,N/A,,Overcast,200,2013-06-15 17:36:00
1:56 PM,62.1,45.5,55,29.97,10.0,SSW,4.6,-,N/A,,Mostly Cloudy,210,2013-06-15 17:56:00
2:16 PM,63.1,46.0,54,29.97,10.0,SSW,8.1,-,N/A,,Mostly Cloudy,210,2013-06-15 18:16:00
2:36 PM,63.7,41.7,45,29.97,10.0,South,9.2,-,N/A,,Mostly Cloudy,190,2013-06-15 18:36:00
2:56 PM,64.4,38.7,39,29.96,10.0,SSW,9.2,-,N/A,,Scattered Clouds,200,2013-06-15 18:56:00
3:16 PM,64.4,36.7,36,29.96,10.0,SSW,8.1,-,N/A,,Clear,200,2013-06-15 19:16:00
3:36 PM,63.5,37.6,38,29.96,10.0,South,5.8,-,N/A,,Mostly Cloudy,190,2013-06-15 19:36:00
3:56 PM,64.9,34.7,33,29.95,10.0,South,5.8,-,N/A,,Mostly Cloudy,180,2013-06-15 19:56:00
4:15 PM,66.6,38.1,35,29.94,10.0,SSE,4.6,-,N/A,,Mostly Cloudy,160,2013-06-15 20:15:00
4:36 PM,66.4,36.5,33,29.94,10.0,South,4.6,-,N/A,,Mostly Cloudy,170,2013-06-15 20:36:00
4:56 PM,66.2,36.5,33,29.94,10.0,SSE,8.1,-,N/A,,Overcast,160,2013-06-15 20:56:00
5:16 PM,64.6,37.8,37,29.93,10.0,SSE,4.6,-,N/A,,Overcast,150,2013-06-15 21:16:00
5:36 PM,63.3,39.0,41,29.94,10.0,SSE,5.8,-,N/A,,Overcast,150,2013-06-15 21:36:00
5:56 PM,62.4,38.8,42,29.93,10.0,SSE,3.5,-,N/A,,Overcast,160,2013-06-15 21:56:00
6:16 PM,63.1,42.1,46,29.92,10.0,SSE,3.5,-,N/A,,Overcast,150,2013-06-15 22:16:00
6:36 PM,65.3,41.0,41,29.91,10.0,SSE,3.5,-,N/A,,Mostly Cloudy,150,2013-06-15 22:36:00
6:56 PM,64.0,41.2,43,29.92,10.0,South,4.6,-,N/A,,Overcast,190,2013-06-15 22:56:00
7:16 PM,63.7,42.1,45,29.92,10.0,Calm,Calm,-,N/A,,Overcast,0,2013-06-15 23:16:00
7:36 PM,63.5,44.2,49,29.91,10.0,Calm,Calm,-,N/A,,Overcast,0,2013-06-15 23:36:00
7:56 PM,62.6,43.9,50,29.90,10.0,SE,3.5,-,N/A,,Overcast,140,2013-06-15 23:56:00
8:16 PM,61.3,38.7,43,29.89,10.0,Calm,Calm,-,N/A,,Overcast,0,2013-06-16 00:16:00
8:36 PM,60.4,38.3,44,29.88,10.0,ESE,3.5,-,N/A,,Overcast,120,2013-06-16 00:36:00
8:55 PM,60.1,38.3,44,29.88,10.0,SE,3.5,-,N/A,,Overcast,130,2013-06-16 00:55:00
9:16 PM,59.9,38.1,44,29.86,10.0,SSE,3.5,-,N/A,,Overcast,150,2013-06-16 01:16:00
9:36 PM,59.9,40.1,48,29.85,10.0,Calm,Calm,-,N/A,,Overcast,0,2013-06-16 01:36:00
9:56 PM,59.9,42.6,53,29.85,10.0,Calm,Calm,-,N/A,,Overcast,0,2013-06-16 01:56:00
10:16 PM,59.0,45.0,60,29.85,10.0,SE,3.5,-,N/A,Rain,Rain,130,2013-06-16 02:16:00
10:36 PM,58.8,45.5,61,29.85,10.0,Calm,Calm,-,N/A,,Overcast,0,2013-06-16 02:36:00
10:56 PM,58.8,46.0,63,29.85,10.0,Calm,Calm,-,N/A,,Overcast,0,2013-06-16 02:56:00
11:16 PM,58.5,46.0,63,29.85,7.0,Calm,Calm,-,N/A,Rain,Light Rain,0,2013-06-16 03:16:00
11:36 PM,55.9,49.8,80,29.86,10.0,Calm,Calm,-,N/A,Rain,Light Rain,0,2013-06-16 03:36:00
11:56 PM,55.0,52.0,89,29.86,10.0,Calm,Calm,-,N/A,,Light Drizzle,0,2013-06-16 03:56:00